Time,TemperatureF,DewpointF,PressureIn,WindDirection,WindDirectionDegrees,WindSpeedMPH,WindSpeedGustMPH,Humidity,HourlyPrecipIn,Conditions,Clouds,dailyrainin,SoftwareType,DateUTC
2013-10-31 00:01:00,46.6,46.0,30.29,NNW,337,5.8,6.0,96,0.00,,,0.00,Rainwise IP-100,2013-10-31 04:01:00,
2013-10-31 00:06:00,46.5,46.0,30.29,NNW,337,4.9,6.0,96,0.00,,,0.00,Rainwise IP-100,2013-10-31 04:06:00,
2013-10-31 00:11:00,46.5,46.0,30.29,NNW,337,5.1,5.1,96,0.00,,,0.00,Rainwise IP-100,2013-10-31 04:11:00,
2013-10-31 00:16:00,46.4,45.0,30.29,NNW,337,4.9,5.0,96,0.00,,,0.00,Rainwise IP-100,2013-10-31 04:16:00,
2013-10-31 00:21:00,46.5,46.0,30.29,NNW,337,4.0,5.0,96,0.00,,,0.00,Rainwise IP-100,2013-10-31 04:21:00,
2013-10-31 00:26:00,46.7,46.0,30.29,NNW,337,4.2,4.2,96,0.00,,,0.00,Rainwise IP-100,2013-10-31 04:26:00,
2013-10-31 00:32:00,46.5,46.0,30.29,NNW,337,4.9,5.0,97,0.00,,,0.00,Rainwise IP-100,2013-10-31 04:32:00,
2013-10-31 00:37:00,46.4,45.0,30.28,NNW,337,4.4,5.0,97,0.00,,,0.00,Rainwise IP-100,2013-10-31 04:37:00,
2013-10-31 00:42:00,46.4,45.0,30.29,NNW,337,7.0,7.0,97,0.00,,,0.00,Rainwise IP-100,2013-10-31 04:42:00,
2013-10-31 00:47:00,46.1,45.0,30.28,NNW,337,5.4,7.0,97,0.00,,,0.00,Rainwise IP-100,2013-10-31 04:47:00,
2013-10-31 00:52:00,45.9,45.0,30.29,NNW,337,5.1,7.0,97,0.00,,,0.00,Rainwise IP-100,2013-10-31 04:52:00,
2013-10-31 00:57:00,46.0,45.0,30.28,NNW,337,4.4,7.0,97,0.00,,,0.00,Rainwise IP-100,2013-10-31 04:57:00,
2013-10-31 01:02:00,46.0,45.0,30.28,NNW,337,5.1,5.1,97,0.00,,,0.00,Rainwise IP-100,2013-10-31 05:02:00,
2013-10-31 01:07:00,46.0,45.0,30.28,NNW,337,3.7,5.0,97,0.00,,,0.00,Rainwise IP-100,2013-10-31 05:07:00,
2013-10-31 01:13:00,45.9,45.0,30.28,NNW,337,3.0,4.0,97,0.00,,,0.00,Rainwise IP-100,2013-10-31 05:13:00,
2013-10-31 01:18:00,45.8,45.0,30.28,NNW,337,3.0,4.0,97,0.00,,,0.00,Rainwise IP-100,2013-10-31 05:18:00,
2013-10-31 01:23:00,45.7,45.0,30.27,NNW,337,3.5,4.0,97,0.00,,,0.00,Rainwise IP-100,2013-10-31 05:23:00,
2013-10-31 01:28:00,45.6,45.0,30.27,NNW,337,2.8,3.0,97,0.00,,,0.00,Rainwise IP-100,2013-10-31 05:28:00,
2013-10-31 01:33:00,45.5,45.0,30.27,NNW,337,2.6,3.0,97,0.00,,,0.00,Rainwise IP-100,2013-10-31 05:33:00,
2013-10-31 01:38:00,45.5,45.0,30.27,NNW,337,2.1,2.1,97,0.00,,,0.00,Rainwise IP-100,2013-10-31 05:38:00,
2013-10-31 01:43:00,45.5,45.0,30.27,NNW,337,2.6,3.0,97,0.00,,,0.00,Rainwise IP-100,2013-10-31 05:43:00,
2013-10-31 01:49:00,45.4,44.0,30.26,NNW,337,0.0,3.0,97,0.00,,,0.00,Rainwise IP-100,2013-10-31 05:49:00,
2013-10-31 01:54:00,45.2,44.0,30.27,NNE,22,0.0,1.0,97,0.00,,,0.00,Rainwise IP-100,2013-10-31 05:54:00,
2013-10-31 01:59:00,45.0,44.0,30.27,NNE,22,0.0,0.0,97,0.00,,,0.00,Rainwise IP-100,2013-10-31 05:59:00,
2013-10-31 02:04:00,45.0,44.0,30.27,North,360,2.1,2.1,97,0.00,,,0.00,Rainwise IP-100,2013-10-31 06:04:00,
2013-10-31 02:09:00,44.9,44.0,30.26,NNW,337,4.2,4.2,97,0.00,,,0.00,Rainwise IP-100,2013-10-31 06:09:00,
2013-10-31 02:14:00,44.7,44.0,30.26,NNW,337,3.7,4.0,97,0.00,,,0.00,Rainwise IP-100,2013-10-31 06:14:00,
2013-10-31 02:19:00,44.5,44.0,30.26,NNW,337,4.0,4.0,97,0.00,,,0.00,Rainwise IP-100,2013-10-31 06:19:00,
2013-10-31 02:24:00,44.3,43.0,30.27,NNW,337,4.4,5.0,97,0.00,,,0.00,Rainwise IP-100,2013-10-31 06:24:00,
2013-10-31 02:30:00,44.2,43.0,30.27,NNW,337,4.4,5.0,97,0.00,,,0.00,Rainwise IP-100,2013-10-31 06:30:00,
2013-10-31 02:35:00,44.1,43.0,30.27,NNW,337,5.8,5.8,97,0.00,,,0.00,Rainwise IP-100,2013-10-31 06:35:00,
2013-10-31 02:40:00,44.0,43.0,30.27,NNW,337,4.2,7.0,97,0.00,,,0.00,Rainwise IP-100,2013-10-31 06:40:00,
2013-10-31 02:45:00,43.9,43.0,30.27,NNW,337,4.9,6.0,97,0.00,,,0.00,Rainwise IP-100,2013-10-31 06:45:00,
2013-10-31 02:50:00,43.9,43.0,30.27,NNW,337,5.8,6.0,97,0.00,,,0.00,Rainwise IP-100,2013-10-31 06:50:00,
2013-10-31 02:55:00,43.9,43.0,30.27,NNW,337,4.9,6.0,97,0.00,,,0.00,Rainwise IP-100,2013-10-31 06:55:00,
2013-10-31 03:00:00,44.0,43.0,30.26,NNW,337,4.4,5.0,98,0.00,,,0.00,Rainwise IP-100,2013-10-31 07:00:00,
2013-10-31 03:06:00,43.9,43.0,30.27,NNW,337,3.5,4.0,98,0.00,,,0.00,Rainwise IP-100,2013-10-31 07:06:00,
2013-10-31 03:11:00,43.8,43.0,30.27,NNW,337,4.9,5.0,98,0.00,,,0.00,Rainwise IP-100,2013-10-31 07:11:00,
2013-10-31 03:17:00,43.8,43.0,30.27,NNW,337,4.0,6.0,98,0.00,,,0.00,Rainwise IP-100,2013-10-31 07:17:00,
2013-10-31 03:22:00,43.7,43.0,30.27,NNW,337,4.4,5.0,98,0.00,,,0.00,Rainwise IP-100,2013-10-31 07:22:00,
2013-10-31 03:27:00,43.7,43.0,30.27,NNW,337,3.3,5.0,98,0.00,,,0.00,Rainwise IP-100,2013-10-31 07:27:00,
2013-10-31 03:32:00,43.7,43.0,30.27,NNW,337,4.0,5.0,98,0.00,,,0.00,Rainwise IP-100,2013-10-31 07:32:00,
2013-10-31 03:37:00,43.9,43.0,30.27,NNW,337,3.5,4.0,98,0.00,,,0.00,Rainwise IP-100,2013-10-31 07:37:00,
2013-10-31 03:42:00,44.0,43.0,30.26,NNW,337,3.3,3.3,98,0.00,,,0.00,Rainwise IP-100,2013-10-31 07:42:00,
2013-10-31 03:47:00,44.1,43.0,30.26,NNW,337,3.3,3.3,98,0.00,,,0.00,Rainwise IP-100,2013-10-31 07:47:00,
2013-10-31 03:52:00,44.4,43.0,30.26,NNW,337,5.6,5.6,98,0.00,,,0.00,Rainwise IP-100,2013-10-31 07:52:00,
2013-10-31 03:58:00,44.5,44.0,30.26,NNW,337,4.4,5.0,98,0.00,,,0.00,Rainwise IP-100,2013-10-31 07:58:00,
2013-10-31 04:03:00,44.5,44.0,30.26,NNW,337,3.5,4.0,98,0.00,,,0.00,Rainwise IP-100,2013-10-31 08:03:00,
2013-10-31 04:08:00,44.6,44.0,30.26,NNW,337,2.8,4.0,97,0.00,,,0.00,Rainwise IP-100,2013-10-31 08:08:00,
2013-10-31 04:13:00,44.9,44.0,30.25,NNW,337,3.3,4.0,97,0.00,,,0.00,Rainwise IP-100,2013-10-31 08:13:00,
2013-10-31 04:18:00,45.2,44.0,30.26,NNW,337,3.3,4.0,97,0.00,,,0.00,Rainwise IP-100,2013-10-31 08:18:00,
2013-10-31 04:23:00,45.4,44.0,30.26,NNW,337,3.7,4.0,97,0.00,,,0.00,Rainwise IP-100,2013-10-31 08:23:00,
2013-10-31 04:28:00,45.6,45.0,30.26,NNW,337,4.0,4.0,97,0.00,,,0.00,Rainwise IP-100,2013-10-31 08:28:00,
2013-10-31 04:34:00,45.8,45.0,30.26,NNW,337,3.7,4.0,97,0.00,,,0.00,Rainwise IP-100,2013-10-31 08:34:00,
2013-10-31 04:39:00,45.9,45.0,30.26,NNW,337,3.7,4.0,97,0.00,,,0.00,Rainwise IP-100,2013-10-31 08:39:00,
2013-10-31 04:44:00,46.1,45.0,30.25,NNW,337,3.5,4.0,97,0.00,,,0.00,Rainwise IP-100,2013-10-31 08:44:00,
2013-10-31 04:49:00,46.3,45.0,30.25,NNW,337,3.3,4.0,97,0.00,,,0.00,Rainwise IP-100,2013-10-31 08:49:00,
2013-10-31 04:54:00,46.4,45.0,30.25,NNW,337,4.0,4.0,97,0.00,,,0.00,Rainwise IP-100,2013-10-31 08:54:00,
2013-10-31 04:59:00,46.6,46.0,30.25,NNW,337,4.2,4.2,97,0.00,,,0.00,Rainwise IP-100,2013-10-31 08:59:00,
2013-10-31 05:04:00,46.8,46.0,30.25,NNW,337,3.5,5.0,97,0.00,,,0.00,Rainwise IP-100,2013-10-31 09:04:00,
2013-10-31 05:09:00,47.0,46.0,30.25,NNW,337,3.7,5.0,96,0.00,,,0.00,Rainwise IP-100,2013-10-31 09:09:00,
2013-10-31 05:15:00,47.2,46.0,30.24,NNW,337,3.0,4.0,96,0.00,,,0.00,Rainwise IP-100,2013-10-31 09:15:00,
2013-10-31 05:20:00,47.3,46.0,30.24,NNW,337,2.8,3.0,96,0.00,,,0.00,Rainwise IP-100,2013-10-31 09:20:00,
2013-10-31 05:25:00,47.6,47.0,30.24,NNW,337,2.1,4.0,96,0.00,,,0.00,Rainwise IP-100,2013-10-31 09:25:00,
2013-10-31 05:30:00,47.9,47.0,30.24,NNW,337,3.5,3.5,96,0.00,,,0.00,Rainwise IP-100,2013-10-31 09:30:00,
2013-10-31 05:35:00,48.2,47.0,30.24,NNW,337,3.3,5.0,97,0.00,,,0.00,Rainwise IP-100,2013-10-31 09:35:00,
2013-10-31 05:40:00,48.4,47.0,30.24,NNW,337,4.9,4.9,97,0.00,,,0.00,Rainwise IP-100,2013-10-31 09:40:00,
2013-10-31 05:45:00,48.4,47.0,30.24,NNW,337,2.8,4.0,96,0.00,,,0.00,Rainwise IP-100,2013-10-31 09:45:00,
2013-10-31 05:50:00,48.5,48.0,30.24,NNW,337,0.0,3.0,96,0.00,,,0.00,Rainwise IP-100,2013-10-31 09:50:00,
2013-10-31 05:55:00,48.7,48.0,30.25,NNW,337,1.9,1.9,97,0.00,,,0.00,Rainwise IP-100,2013-10-31 09:55:00,
2013-10-31 06:01:00,49.1,48.0,30.24,NNW,337,0.0,3.0,97,0.00,,,0.00,Rainwise IP-100,2013-10-31 10:01:00,
2013-10-31 06:06:00,49.3,48.0,30.25,NNW,337,2.1,3.0,97,0.00,,,0.00,Rainwise IP-100,2013-10-31 10:06:00,
2013-10-31 06:11:00,49.4,48.0,30.24,NNW,337,2.1,2.1,97,0.00,,,0.00,Rainwise IP-100,2013-10-31 10:11:00,
2013-10-31 06:16:00,49.5,49.0,30.24,NNW,337,2.1,2.1,97,0.00,,,0.00,Rainwise IP-100,2013-10-31 10:16:00,
2013-10-31 06:21:00,49.5,49.0,30.24,NNW,337,0.0,2.0,97,0.00,,,0.00,Rainwise IP-100,2013-10-31 10:21:00,
2013-10-31 06:26:00,49.6,49.0,30.24,NNW,337,1.4,1.4,97,0.00,,,0.00,Rainwise IP-100,2013-10-31 10:26:00,
2013-10-31 06:31:00,49.7,49.0,30.23,NNW,337,1.2,3.0,97,0.00,,,0.00,Rainwise IP-100,2013-10-31 10:31:00,
2013-10-31 06:37:00,49.8,49.0,30.24,NNW,337,3.0,4.0,97,0.00,,,0.00,Rainwise IP-100,2013-10-31 10:37:00,
2013-10-31 06:42:00,49.9,49.0,30.24,NNW,337,2.1,3.0,97,0.00,,,0.00,Rainwise IP-100,2013-10-31 10:42:00,
2013-10-31 06:47:00,50.0,49.0,30.24,NNW,337,1.9,3.0,97,0.00,,,0.00,Rainwise IP-100,2013-10-31 10:47:00,
2013-10-31 06:52:00,50.0,49.0,30.24,NNW,337,1.9,3.0,97,0.00,,,0.00,Rainwise IP-100,2013-10-31 10:52:00,
2013-10-31 06:57:00,49.9,49.0,30.23,NNE,22,1.6,3.0,97,0.00,,,0.00,Rainwise IP-100,2013-10-31 10:57:00,
2013-10-31 07:02:00,49.9,49.0,30.23,NNE,22,1.6,3.0,97,0.00,,,0.00,Rainwise IP-100,2013-10-31 11:02:00,
2013-10-31 07:07:00,49.9,49.0,30.23,NNE,22,1.6,3.0,97,0.00,,,0.00,Rainwise IP-100,2013-10-31 11:07:00,
2013-10-31 07:12:00,50.0,49.0,30.23,NNW,337,2.3,3.0,97,0.00,,,0.00,Rainwise IP-100,2013-10-31 11:12:00,
2013-10-31 07:18:00,50.0,49.0,30.24,North,360,2.8,3.0,97,0.00,,,0.00,Rainwise IP-100,2013-10-31 11:18:00,
2013-10-31 07:23:00,50.0,49.0,30.24,NNW,337,2.8,3.0,97,0.00,,,0.00,Rainwise IP-100,2013-10-31 11:23:00,
2013-10-31 07:28:00,50.0,49.0,30.23,North,360,2.8,4.0,97,0.00,,,0.00,Rainwise IP-100,2013-10-31 11:28:00,
2013-10-31 07:33:00,50.1,49.0,30.24,North,360,1.6,3.0,97,0.00,,,0.00,Rainwise IP-100,2013-10-31 11:33:00,
2013-10-31 07:38:00,50.2,49.0,30.23,North,360,1.2,1.2,97,0.00,,,0.00,Rainwise IP-100,2013-10-31 11:38:00,
2013-10-31 07:43:00,50.2,49.0,30.23,North,360,1.6,2.0,97,0.00,,,0.00,Rainwise IP-100,2013-10-31 11:43:00,
2013-10-31 07:48:00,50.3,49.0,30.23,North,360,1.6,2.0,97,0.00,,,0.00,Rainwise IP-100,2013-10-31 11:48:00,
2013-10-31 07:54:00,50.3,49.0,30.23,NNE,22,0.0,2.0,97,0.00,,,0.00,Rainwise IP-100,2013-10-31 11:54:00,
2013-10-31 07:59:00,50.3,49.0,30.23,North,360,1.9,1.9,97,0.00,,,0.00,Rainwise IP-100,2013-10-31 11:59:00,
2013-10-31 08:04:00,50.4,50.0,30.23,NNW,337,2.1,3.0,97,0.00,,,0.00,Rainwise IP-100,2013-10-31 12:04:00,
2013-10-31 08:09:00,50.6,50.0,30.22,North,360,1.2,2.0,97,0.00,,,0.00,Rainwise IP-100,2013-10-31 12:09:00,
2013-10-31 08:14:00,50.7,50.0,30.22,ENE,67,2.6,3.0,97,0.00,,,0.00,Rainwise IP-100,2013-10-31 12:14:00,
2013-10-31 08:19:00,50.8,50.0,30.22,East,90,1.9,4.0,97,0.00,,,0.00,Rainwise IP-100,2013-10-31 12:19:00,
2013-10-31 08:24:00,51.0,50.0,30.22,NE,45,1.9,3.0,96,0.00,,,0.00,Rainwise IP-100,2013-10-31 12:24:00,
2013-10-31 08:29:00,51.1,50.0,30.22,NE,45,1.4,3.0,96,0.00,,,0.00,Rainwise IP-100,2013-10-31 12:29:00,
2013-10-31 08:35:00,51.5,50.0,30.22,NE,45,0.0,1.0,96,0.00,,,0.00,Rainwise IP-100,2013-10-31 12:35:00,
2013-10-31 08:40:00,51.9,50.0,30.23,NNE,22,0.0,2.0,96,0.00,,,0.00,Rainwise IP-100,2013-10-31 12:40:00,
2013-10-31 08:45:00,52.1,50.0,30.22,NNE,22,0.0,0.0,96,0.00,,,0.00,Rainwise IP-100,2013-10-31 12:45:00,
2013-10-31 08:50:00,52.4,50.0,30.22,ENE,67,1.6,3.0,96,0.00,,,0.00,Rainwise IP-100,2013-10-31 12:50:00,
2013-10-31 08:55:00,52.7,51.0,30.22,ENE,67,1.2,1.2,96,0.00,,,0.00,Rainwise IP-100,2013-10-31 12:55:00,
2013-10-31 09:00:00,52.8,51.0,30.23,ENE,67,0.0,2.0,95,0.00,,,0.00,Rainwise IP-100,2013-10-31 13:00:00,
2013-10-31 09:05:00,53.1,51.0,30.22,NE,45,0.0,2.0,95,0.00,,,0.00,Rainwise IP-100,2013-10-31 13:05:00,
2013-10-31 09:11:00,53.4,52.0,30.23,NE,45,1.2,1.2,95,0.00,,,0.00,Rainwise IP-100,2013-10-31 13:11:00,
2013-10-31 09:16:00,53.6,52.0,30.22,NE,45,1.2,3.0,95,0.00,,,0.00,Rainwise IP-100,2013-10-31 13:16:00,
2013-10-31 09:21:00,53.8,52.0,30.22,NE,45,0.0,2.0,95,0.00,,,0.00,Rainwise IP-100,2013-10-31 13:21:00,
2013-10-31 09:26:00,53.9,53.0,30.22,NE,45,2.8,4.0,95,0.00,,,0.00,Rainwise IP-100,2013-10-31 13:26:00,
2013-10-31 09:31:00,54.1,52.0,30.21,ENE,67,2.8,5.0,94,0.00,,,0.00,Rainwise IP-100,2013-10-31 13:31:00,
2013-10-31 09:36:00,54.4,53.0,30.21,ENE,67,1.4,4.0,94,0.00,,,0.00,Rainwise IP-100,2013-10-31 13:36:00,
2013-10-31 09:41:00,54.6,53.0,30.21,ENE,67,2.8,4.0,94,0.00,,,0.00,Rainwise IP-100,2013-10-31 13:41:00,
2013-10-31 09:46:00,54.9,53.0,30.21,ENE,67,3.3,5.0,94,0.00,,,0.00,Rainwise IP-100,2013-10-31 13:46:00,
2013-10-31 09:52:00,55.4,53.0,30.21,NE,45,2.8,7.0,94,0.00,,,0.00,Rainwise IP-100,2013-10-31 13:52:00,
2013-10-31 09:57:00,55.8,54.0,30.20,NNW,337,1.4,6.0,94,0.00,,,0.00,Rainwise IP-100,2013-10-31 13:57:00,
2013-10-31 10:02:00,56.0,54.0,30.20,East,90,4.0,4.0,93,0.00,,,0.00,Rainwise IP-100,2013-10-31 14:02:00,
2013-10-31 10:07:00,56.3,54.0,30.19,ESE,112,4.0,6.0,93,0.00,,,0.00,Rainwise IP-100,2013-10-31 14:07:00,
2013-10-31 10:12:00,56.8,54.0,30.19,East,90,6.1,7.0,93,0.00,,,0.00,Rainwise IP-100,2013-10-31 14:12:00,
2013-10-31 10:17:00,57.4,56.0,30.19,ESE,112,4.9,8.0,93,0.00,,,0.00,Rainwise IP-100,2013-10-31 14:17:00,
2013-10-31 10:22:00,57.8,56.0,30.20,East,90,5.4,7.0,93,0.00,,,0.00,Rainwise IP-100,2013-10-31 14:22:00,
2013-10-31 10:28:00,57.9,56.0,30.19,East,90,6.1,8.0,93,0.00,,,0.00,Rainwise IP-100,2013-10-31 14:28:00,
2013-10-31 10:33:00,57.9,56.0,30.18,ESE,112,8.4,10.0,93,0.00,,,0.00,Rainwise IP-100,2013-10-31 14:33:00,
2013-10-31 10:38:00,58.0,56.0,30.19,ESE,112,6.8,10.0,93,0.00,,,0.00,Rainwise IP-100,2013-10-31 14:38:00,
2013-10-31 10:43:00,58.2,56.0,30.18,ENE,67,3.5,8.0,94,0.00,,,0.00,Rainwise IP-100,2013-10-31 14:43:00,
2013-10-31 10:48:00,58.3,56.0,30.18,ESE,112,5.6,6.0,94,0.00,,,0.00,Rainwise IP-100,2013-10-31 14:48:00,
2013-10-31 10:53:00,58.6,57.0,30.18,East,90,4.2,6.0,93,0.00,,,0.00,Rainwise IP-100,2013-10-31 14:53:00,
2013-10-31 10:58:00,58.8,57.0,30.18,East,90,4.9,6.0,93,0.00,,,0.00,Rainwise IP-100,2013-10-31 14:58:00,
2013-10-31 11:03:00,58.9,57.0,30.18,ESE,112,4.4,5.0,93,0.00,,,0.00,Rainwise IP-100,2013-10-31 15:03:00,
2013-10-31 11:09:00,59.1,57.0,30.18,ESE,112,3.3,5.0,93,0.00,,,0.00,Rainwise IP-100,2013-10-31 15:09:00,
2013-10-31 11:14:00,59.3,57.0,30.18,SE,135,1.2,4.0,93,0.00,,,0.00,Rainwise IP-100,2013-10-31 15:14:00,
2013-10-31 11:19:00,59.5,57.0,30.18,SE,135,1.4,3.0,93,0.00,,,0.00,Rainwise IP-100,2013-10-31 15:19:00,
2013-10-31 11:24:00,59.8,57.0,30.16,SE,135,1.2,3.0,93,0.00,,,0.00,Rainwise IP-100,2013-10-31 15:24:00,
2013-10-31 11:29:00,60.1,57.0,30.16,SE,135,1.9,3.0,92,0.00,,,0.00,Rainwise IP-100,2013-10-31 15:29:00,
2013-10-31 11:34:00,60.3,57.0,30.16,SSW,202,0.0,2.0,92,0.00,,,0.00,Rainwise IP-100,2013-10-31 15:34:00,
2013-10-31 11:39:00,60.7,57.0,30.16,ESE,112,4.0,9.0,91,0.00,,,0.00,Rainwise IP-100,2013-10-31 15:39:00,
2013-10-31 11:45:00,60.8,57.0,30.16,SSE,157,3.5,7.0,91,0.00,,,0.00,Rainwise IP-100,2013-10-31 15:45:00,
2013-10-31 11:50:00,60.9,58.0,30.16,SE,135,5.1,6.0,91,0.00,,,0.00,Rainwise IP-100,2013-10-31 15:50:00,
2013-10-31 11:55:00,60.9,58.0,30.15,SSE,157,5.6,7.0,91,0.00,,,0.00,Rainwise IP-100,2013-10-31 15:55:00,
2013-10-31 12:00:00,61.0,58.0,30.15,South,180,10.5,11.0,91,0.00,,,0.00,Rainwise IP-100,2013-10-31 16:00:00,
2013-10-31 12:05:00,61.5,59.0,30.14,South,180,10.0,12.0,91,0.00,,,0.00,Rainwise IP-100,2013-10-31 16:05:00,
2013-10-31 12:10:00,61.8,59.0,30.14,South,180,9.6,11.0,91,0.00,,,0.00,Rainwise IP-100,2013-10-31 16:10:00,
2013-10-31 12:15:00,61.9,59.0,30.14,South,180,10.5,12.0,91,0.00,,,0.00,Rainwise IP-100,2013-10-31 16:15:00,
2013-10-31 12:20:00,62.1,59.0,30.14,South,180,9.1,11.0,91,0.00,,,0.00,Rainwise IP-100,2013-10-31 16:20:00,
2013-10-31 12:26:00,62.1,59.0,30.14,South,180,8.2,10.0,91,0.00,,,0.00,Rainwise IP-100,2013-10-31 16:26:00,
2013-10-31 12:31:00,62.3,59.0,30.13,SSW,202,10.7,11.0,90,0.00,,,0.00,Rainwise IP-100,2013-10-31 16:31:00,
2013-10-31 12:36:00,62.6,59.0,30.13,South,180,9.3,12.0,90,0.00,,,0.00,Rainwise IP-100,2013-10-31 16:36:00,
2013-10-31 12:41:00,62.8,59.0,30.13,SSW,202,10.5,11.0,89,0.00,,,0.00,Rainwise IP-100,2013-10-31 16:41:00,
2013-10-31 12:46:00,62.9,60.0,30.12,South,180,9.1,11.0,89,0.00,,,0.00,Rainwise IP-100,2013-10-31 16:46:00,
2013-10-31 12:51:00,63.0,60.0,30.11,South,180,10.0,11.0,89,0.00,,,0.00,Rainwise IP-100,2013-10-31 16:51:00,
2013-10-31 12:56:00,62.9,60.0,30.11,South,180,7.7,10.0,89,0.00,,,0.00,Rainwise IP-100,2013-10-31 16:56:00,
2013-10-31 13:02:00,62.7,59.0,30.10,South,180,7.7,11.0,89,0.00,,,0.00,Rainwise IP-100,2013-10-31 17:02:00,
2013-10-31 13:07:00,62.4,59.0,30.10,SSE,157,7.7,9.0,89,0.00,,,0.00,Rainwise IP-100,2013-10-31 17:07:00,
2013-10-31 13:12:00,62.2,59.0,30.10,South,180,10.3,10.3,90,0.00,,,0.00,Rainwise IP-100,2013-10-31 17:12:00,
2013-10-31 13:17:00,62.0,59.0,30.09,South,180,14.7,18.0,90,0.00,,,0.00,Rainwise IP-100,2013-10-31 17:17:00,
2013-10-31 13:22:00,62.1,59.0,30.09,South,180,12.6,19.0,90,0.00,,,0.00,Rainwise IP-100,2013-10-31 17:22:00,
2013-10-31 13:27:00,62.2,59.0,30.09,South,180,10.5,18.0,90,0.00,,,0.00,Rainwise IP-100,2013-10-31 17:27:00,
2013-10-31 13:32:00,62.2,59.0,30.09,South,180,13.8,16.0,90,0.00,,,0.00,Rainwise IP-100,2013-10-31 17:32:00,
2013-10-31 13:37:00,62.0,59.0,30.09,South,180,13.8,15.0,90,0.00,,,0.00,Rainwise IP-100,2013-10-31 17:37:00,
2013-10-31 13:43:00,61.8,59.0,30.09,South,180,15.6,16.0,90,0.00,,,0.00,Rainwise IP-100,2013-10-31 17:43:00,
2013-10-31 13:48:00,61.7,59.0,30.08,South,180,14.2,18.0,90,0.00,,,0.00,Rainwise IP-100,2013-10-31 17:48:00,
2013-10-31 13:53:00,61.6,59.0,30.08,South,180,12.4,18.0,91,0.00,,,0.00,Rainwise IP-100,2013-10-31 17:53:00,
2013-10-31 13:58:00,61.3,58.0,30.07,SSW,202,10.7,14.0,91,0.00,,,0.00,Rainwise IP-100,2013-10-31 17:58:00,
2013-10-31 14:03:00,61.0,59.0,30.07,South,180,11.7,14.0,92,0.00,,,0.00,Rainwise IP-100,2013-10-31 18:03:00,
2013-10-31 14:08:00,60.9,59.0,30.06,South,180,10.3,12.0,92,0.00,,,0.00,Rainwise IP-100,2013-10-31 18:08:00,
2013-10-31 14:13:00,60.8,58.0,30.06,South,180,9.3,12.0,93,0.00,,,0.00,Rainwise IP-100,2013-10-31 18:13:00,
2013-10-31 14:19:00,60.8,58.0,30.06,South,180,8.6,10.0,93,0.00,,,0.00,Rainwise IP-100,2013-10-31 18:19:00,
2013-10-31 14:24:00,60.7,59.0,30.06,South,180,7.7,9.0,94,0.00,,,0.00,Rainwise IP-100,2013-10-31 18:24:00,
2013-10-31 14:29:00,60.7,59.0,30.06,SSE,157,6.1,8.0,94,0.00,,,0.00,Rainwise IP-100,2013-10-31 18:29:00,
2013-10-31 14:34:00,60.6,59.0,30.05,SSE,157,7.9,8.0,94,0.00,,,0.00,Rainwise IP-100,2013-10-31 18:34:00,
2013-10-31 14:39:00,60.5,59.0,30.05,SSE,157,6.5,8.0,95,0.00,,,0.00,Rainwise IP-100,2013-10-31 18:39:00,
2013-10-31 14:44:00,60.4,59.0,30.05,SSE,157,5.6,6.0,95,0.00,,,0.00,Rainwise IP-100,2013-10-31 18:44:00,
2013-10-31 14:49:00,60.4,59.0,30.06,SSE,157,5.8,7.0,95,0.00,,,0.00,Rainwise IP-100,2013-10-31 18:49:00,
2013-10-31 14:54:00,60.6,59.0,30.05,SSE,157,4.2,6.0,95,0.00,,,0.00,Rainwise IP-100,2013-10-31 18:54:00,
2013-10-31 15:00:00,60.7,59.0,30.05,SSE,157,5.6,5.6,95,0.00,,,0.00,Rainwise IP-100,2013-10-31 19:00:00,
2013-10-31 15:05:00,60.7,59.0,30.05,SSE,157,5.1,5.1,95,0.00,,,0.00,Rainwise IP-100,2013-10-31 19:05:00,
2013-10-31 15:10:00,60.7,59.0,30.06,SSE,157,4.2,6.0,95,0.00,,,0.00,Rainwise IP-100,2013-10-31 19:10:00,
2013-10-31 15:15:00,60.5,59.0,30.05,SSE,157,4.2,4.2,95,0.00,,,0.00,Rainwise IP-100,2013-10-31 19:15:00,
2013-10-31 15:20:00,60.5,59.0,30.05,SSE,157,4.2,4.2,95,0.00,,,0.00,Rainwise IP-100,2013-10-31 19:20:00,
2013-10-31 15:25:00,60.6,59.0,30.04,SSE,157,3.7,4.0,95,0.00,,,0.00,Rainwise IP-100,2013-10-31 19:25:00,
2013-10-31 15:30:00,60.7,59.0,30.04,SSE,157,3.7,4.0,95,0.00,,,0.00,Rainwise IP-100,2013-10-31 19:30:00,
2013-10-31 15:36:00,60.8,59.0,30.04,SSE,157,2.6,5.0,95,0.00,,,0.00,Rainwise IP-100,2013-10-31 19:36:00,
2013-10-31 15:41:00,60.8,59.0,30.03,SSE,157,4.4,4.4,95,0.00,,,0.00,Rainwise IP-100,2013-10-31 19:41:00,
2013-10-31 15:46:00,60.9,59.0,30.04,SSE,157,4.7,5.0,95,0.00,,,0.00,Rainwise IP-100,2013-10-31 19:46:00,
2013-10-31 15:51:00,60.9,59.0,30.03,SSE,157,2.8,4.0,95,0.00,,,0.00,Rainwise IP-100,2013-10-31 19:51:00,
2013-10-31 15:56:00,60.9,59.0,30.04,South,180,7.0,7.0,95,0.00,,,0.00,Rainwise IP-100,2013-10-31 19:56:00,
2013-10-31 16:01:00,61.1,59.0,30.04,SSW,202,5.1,7.0,95,0.00,,,0.00,Rainwise IP-100,2013-10-31 20:01:00,
2013-10-31 16:06:00,61.2,59.0,30.04,South,180,5.8,7.0,95,0.00,,,0.00,Rainwise IP-100,2013-10-31 20:06:00,
2013-10-31 16:11:00,61.4,60.0,30.04,SSW,202,5.8,10.0,94,0.00,,,0.00,Rainwise IP-100,2013-10-31 20:11:00,
2013-10-31 16:17:00,61.5,60.0,30.04,SSW,202,8.6,12.0,94,0.00,,,0.00,Rainwise IP-100,2013-10-31 20:17:00,
2013-10-31 16:22:00,61.5,60.0,30.03,SSW,202,10.7,14.0,94,0.00,,,0.00,Rainwise IP-100,2013-10-31 20:22:00,
2013-10-31 16:27:00,61.6,59.0,30.04,SSW,202,7.9,12.0,93,0.00,,,0.00,Rainwise IP-100,2013-10-31 20:27:00,
2013-10-31 16:32:00,61.6,59.0,30.03,SSW,202,10.0,12.0,93,0.00,,,0.00,Rainwise IP-100,2013-10-31 20:32:00,
2013-10-31 16:37:00,61.7,59.0,30.03,SSW,202,9.8,13.0,93,0.00,,,0.00,Rainwise IP-100,2013-10-31 20:37:00,
2013-10-31 16:42:00,61.7,59.0,30.03,SSW,202,9.6,12.0,93,0.00,,,0.00,Rainwise IP-100,2013-10-31 20:42:00,
2013-10-31 16:47:00,61.7,59.0,30.04,SSW,202,8.4,11.0,93,0.00,,,0.00,Rainwise IP-100,2013-10-31 20:47:00,
2013-10-31 16:53:00,61.7,59.0,30.03,SSE,157,6.5,11.0,92,0.00,,,0.00,Rainwise IP-100,2013-10-31 20:53:00,
2013-10-31 16:58:00,61.8,59.0,30.03,SSW,202,9.3,10.0,92,0.00,,,0.00,Rainwise IP-100,2013-10-31 20:58:00,
2013-10-31 17:03:00,61.9,60.0,30.02,SSE,157,8.4,9.0,92,0.00,,,0.00,Rainwise IP-100,2013-10-31 21:03:00,
2013-10-31 17:08:00,61.9,60.0,30.02,SSW,202,11.7,11.7,92,0.00,,,0.00,Rainwise IP-100,2013-10-31 21:08:00,
2013-10-31 17:13:00,62.0,59.0,30.02,SSW,202,8.6,11.0,91,0.00,,,0.00,Rainwise IP-100,2013-10-31 21:13:00,
2013-10-31 17:18:00,62.1,59.0,30.02,SSW,202,3.7,11.0,91,0.00,,,0.00,Rainwise IP-100,2013-10-31 21:18:00,
2013-10-31 17:23:00,62.1,59.0,30.02,SSW,202,5.4,10.0,91,0.00,,,0.00,Rainwise IP-100,2013-10-31 21:23:00,
2013-10-31 17:28:00,62.1,59.0,30.02,SSW,202,6.8,9.0,91,0.00,,,0.00,Rainwise IP-100,2013-10-31 21:28:00,
2013-10-31 17:34:00,62.1,59.0,30.02,SSW,202,8.9,12.0,91,0.00,,,0.00,Rainwise IP-100,2013-10-31 21:34:00,
2013-10-31 17:39:00,62.1,59.0,30.01,SSW,202,8.4,12.0,91,0.00,,,0.00,Rainwise IP-100,2013-10-31 21:39:00,
2013-10-31 17:44:00,62.2,59.0,30.01,SSW,202,6.8,11.0,91,0.00,,,0.00,Rainwise IP-100,2013-10-31 21:44:00,
2013-10-31 17:49:00,62.2,59.0,30.01,South,180,10.0,10.0,91,0.00,,,0.00,Rainwise IP-100,2013-10-31 21:49:00,
2013-10-31 17:54:00,62.2,59.0,30.01,South,180,7.5,12.0,91,0.00,,,0.00,Rainwise IP-100,2013-10-31 21:54:00,
2013-10-31 17:59:00,62.4,59.0,30.01,SSW,202,11.9,14.0,90,0.00,,,0.00,Rainwise IP-100,2013-10-31 21:59:00,
2013-10-31 18:04:00,62.6,59.0,30.00,South,180,9.3,15.0,90,0.00,,,0.00,Rainwise IP-100,2013-10-31 22:04:00,
2013-10-31 18:10:00,62.8,59.0,30.01,SW,225,7.5,13.0,89,0.00,,,0.00,Rainwise IP-100,2013-10-31 22:10:00,
2013-10-31 18:15:00,62.8,59.0,30.01,SSW,202,5.4,11.0,89,0.00,,,0.00,Rainwise IP-100,2013-10-31 22:15:00,
2013-10-31 18:20:00,62.7,59.0,30.00,South,180,11.0,11.0,89,0.00,,,0.00,Rainwise IP-100,2013-10-31 22:20:00,
2013-10-31 18:25:00,62.7,59.0,30.00,South,180,10.3,14.0,89,0.00,,,0.00,Rainwise IP-100,2013-10-31 22:25:00,
2013-10-31 18:30:00,62.7,59.0,29.99,South,180,9.3,15.0,89,0.00,,,0.00,Rainwise IP-100,2013-10-31 22:30:00,
2013-10-31 18:35:00,62.7,59.0,30.00,South,180,12.4,15.0,89,0.00,,,0.00,Rainwise IP-100,2013-10-31 22:35:00,
2013-10-31 18:40:00,62.6,59.0,30.00,South,180,12.8,17.0,89,0.00,,,0.00,Rainwise IP-100,2013-10-31 22:40:00,
2013-10-31 18:45:00,62.6,59.0,29.99,South,180,12.4,18.0,89,0.00,,,0.00,Rainwise IP-100,2013-10-31 22:45:00,
2013-10-31 18:51:00,62.7,59.0,29.99,SSW,202,11.0,18.0,89,0.00,,,0.00,Rainwise IP-100,2013-10-31 22:51:00,
2013-10-31 18:56:00,62.7,59.0,29.99,SSW,202,13.1,15.0,88,0.00,,,0.00,Rainwise IP-100,2013-10-31 22:56:00,
2013-10-31 19:01:00,62.8,59.0,29.99,SSE,157,9.3,16.0,88,0.00,,,0.00,Rainwise IP-100,2013-10-31 23:01:00,
2013-10-31 19:06:00,62.8,59.0,29.99,WSW,247,9.3,15.0,88,0.00,,,0.00,Rainwise IP-100,2013-10-31 23:06:00,
2013-10-31 19:11:00,62.7,59.0,30.00,SSW,202,7.9,13.0,88,0.00,,,0.00,Rainwise IP-100,2013-10-31 23:11:00,
2013-10-31 19:16:00,62.6,59.0,30.00,South,180,9.3,14.0,88,0.00,,,0.00,Rainwise IP-100,2013-10-31 23:16:00,
2013-10-31 19:21:00,62.6,59.0,30.00,SSW,202,15.2,15.2,88,0.00,,,0.00,Rainwise IP-100,2013-10-31 23:21:00,
2013-10-31 19:27:00,62.6,59.0,30.00,South,180,5.6,17.0,88,0.00,,,0.00,Rainwise IP-100,2013-10-31 23:27:00,
2013-10-31 19:32:00,62.7,59.0,29.99,South,180,11.9,17.0,88,0.00,,,0.00,Rainwise IP-100,2013-10-31 23:32:00,
2013-10-31 19:37:00,62.8,59.0,30.00,SSW,202,9.6,16.0,88,0.00,,,0.00,Rainwise IP-100,2013-10-31 23:37:00,
2013-10-31 19:42:00,62.8,59.0,30.00,South,180,8.6,14.0,88,0.00,,,0.00,Rainwise IP-100,2013-10-31 23:42:00,
2013-10-31 19:47:00,62.8,59.0,30.00,South,180,4.0,11.0,88,0.00,,,0.00,Rainwise IP-100,2013-10-31 23:47:00,
2013-10-31 19:52:00,62.8,59.0,30.00,SSW,202,9.6,12.0,88,0.00,,,0.00,Rainwise IP-100,2013-10-31 23:52:00,
2013-10-31 19:57:00,62.7,59.0,30.00,South,180,8.9,12.0,87,0.00,,,0.00,Rainwise IP-100,2013-10-31 23:57:00,
2013-10-31 20:02:00,62.7,59.0,29.99,South,180,14.2,14.2,87,0.00,,,0.00,Rainwise IP-100,2013-11-01 00:02:00,
2013-10-31 20:08:00,62.8,58.0,29.99,South,180,9.3,15.0,86,0.00,,,0.00,Rainwise IP-100,2013-11-01 00:08:00,
2013-10-31 20:13:00,62.9,58.0,29.98,South,180,10.3,17.0,85,0.00,,,0.00,Rainwise IP-100,2013-11-01 00:13:00,
2013-10-31 20:18:00,62.8,57.0,29.98,SSW,202,10.0,14.0,85,0.00,,,0.00,Rainwise IP-100,2013-11-01 00:18:00,
2013-10-31 20:23:00,62.6,57.0,29.98,SSW,202,13.3,14.0,85,0.00,,,0.00,Rainwise IP-100,2013-11-01 00:23:00,
2013-10-31 20:28:00,62.5,57.0,29.97,South,180,13.3,15.0,84,0.00,,,0.00,Rainwise IP-100,2013-11-01 00:28:00,
2013-10-31 20:33:00,62.5,57.0,29.97,SSW,202,7.0,14.0,84,0.00,,,0.00,Rainwise IP-100,2013-11-01 00:33:00,
2013-10-31 20:38:00,62.6,57.0,29.96,SSW,202,16.3,18.0,83,0.00,,,0.00,Rainwise IP-100,2013-11-01 00:38:00,
2013-10-31 20:44:00,62.6,57.0,29.97,SSW,202,7.5,16.0,83,0.00,,,0.00,Rainwise IP-100,2013-11-01 00:44:00,
2013-10-31 20:49:00,62.5,57.0,29.97,South,180,9.8,16.0,83,0.00,,,0.00,Rainwise IP-100,2013-11-01 00:49:00,
2013-10-31 20:54:00,62.4,57.0,29.96,South,180,12.1,14.0,83,0.00,,,0.00,Rainwise IP-100,2013-11-01 00:54:00,
2013-10-31 20:59:00,62.3,56.0,29.96,South,180,10.5,16.0,83,0.00,,,0.00,Rainwise IP-100,2013-11-01 00:59:00,
2013-10-31 21:04:00,62.2,57.0,29.96,South,180,10.0,17.0,84,0.00,,,0.00,Rainwise IP-100,2013-11-01 01:04:00,
2013-10-31 21:09:00,62.2,57.0,29.96,SSW,202,11.2,14.0,84,0.00,,,0.00,Rainwise IP-100,2013-11-01 01:09:00,
2013-10-31 21:14:00,62.2,57.0,29.95,SSW,202,11.9,15.0,84,0.00,,,0.00,Rainwise IP-100,2013-11-01 01:14:00,
2013-10-31 21:19:00,62.2,57.0,29.95,South,180,16.8,16.8,85,0.00,,,0.00,Rainwise IP-100,2013-11-01 01:19:00,
2013-10-31 21:25:00,62.3,57.0,29.95,South,180,10.7,16.0,85,0.00,,,0.00,Rainwise IP-100,2013-11-01 01:25:00,
2013-10-31 21:30:00,62.4,58.0,29.95,South,180,10.3,14.0,86,0.00,,,0.00,Rainwise IP-100,2013-11-01 01:30:00,
2013-10-31 21:35:00,62.4,58.0,29.95,SSW,202,11.9,15.0,86,0.00,,,0.00,Rainwise IP-100,2013-11-01 01:35:00,
2013-10-31 21:40:00,62.4,59.0,29.94,South,180,12.1,16.0,87,0.00,,,0.00,Rainwise IP-100,2013-11-01 01:40:00,
2013-10-31 21:45:00,62.4,59.0,29.94,SSW,202,8.6,13.0,87,0.00,,,0.00,Rainwise IP-100,2013-11-01 01:45:00,
2013-10-31 21:50:00,62.3,58.0,29.94,South,180,7.0,14.0,88,0.00,,,0.00,Rainwise IP-100,2013-11-01 01:50:00,
2013-10-31 21:55:00,62.2,59.0,29.94,South,180,10.0,14.0,89,0.00,,,0.00,Rainwise IP-100,2013-11-01 01:55:00,
2013-10-31 22:01:00,62.2,59.0,29.93,South,180,10.7,15.0,89,0.00,,,0.00,Rainwise IP-100,2013-11-01 02:01:00,
2013-10-31 22:06:00,62.2,59.0,29.93,South,180,12.6,14.0,90,0.00,,,0.00,Rainwise IP-100,2013-11-01 02:06:00,
2013-10-31 22:11:00,62.2,59.0,29.93,SSW,202,9.6,15.0,90,0.00,,,0.00,Rainwise IP-100,2013-11-01 02:11:00,
2013-10-31 22:16:00,62.2,59.0,29.93,South,180,11.4,14.0,90,0.00,,,0.00,Rainwise IP-100,2013-11-01 02:16:00,
2013-10-31 22:21:00,62.2,59.0,29.92,SSW,202,11.9,11.9,90,0.00,,,0.00,Rainwise IP-100,2013-11-01 02:21:00,
2013-10-31 22:26:00,62.1,59.0,29.91,SSW,202,7.7,13.0,91,0.00,,,0.00,Rainwise IP-100,2013-11-01 02:26:00,
2013-10-31 22:31:00,62.1,59.0,29.91,SSE,157,4.2,9.0,91,0.00,,,0.00,Rainwise IP-100,2013-11-01 02:31:00,
2013-10-31 22:36:00,62.0,59.0,29.91,SSW,202,8.4,10.0,91,0.00,,,0.00,Rainwise IP-100,2013-11-01 02:36:00,
2013-10-31 22:42:00,62.0,59.0,29.91,South,180,6.8,10.0,91,0.00,,,0.00,Rainwise IP-100,2013-11-01 02:42:00,
2013-10-31 22:47:00,61.9,59.0,29.90,South,180,8.4,13.0,91,0.00,,,0.00,Rainwise IP-100,2013-11-01 02:47:00,
2013-10-31 22:52:00,61.9,59.0,29.91,SSW,202,8.6,11.0,91,0.00,,,0.00,Rainwise IP-100,2013-11-01 02:52:00,
2013-10-31 22:57:00,61.9,59.0,29.90,South,180,8.9,13.0,91,0.00,,,0.00,Rainwise IP-100,2013-11-01 02:57:00,
2013-10-31 23:02:00,62.0,59.0,29.91,South,180,9.3,15.0,91,0.00,,,0.00,Rainwise IP-100,2013-11-01 03:02:00,
2013-10-31 23:07:00,62.1,59.0,29.90,South,180,11.7,16.0,91,0.00,,,0.00,Rainwise IP-100,2013-11-01 03:07:00,
2013-10-31 23:12:00,62.2,59.0,29.91,South,180,11.2,16.0,91,0.00,,,0.00,Rainwise IP-100,2013-11-01 03:12:00,
2013-10-31 23:18:00,62.1,59.0,29.91,South,180,7.2,15.0,91,0.00,,,0.00,Rainwise IP-100,2013-11-01 03:18:00,
2013-10-31 23:23:00,62.0,60.0,29.91,SSW,202,10.5,16.0,92,0.00,,,0.00,Rainwise IP-100,2013-11-01 03:23:00,
2013-10-31 23:28:00,61.8,59.0,29.90,SSW,202,11.4,18.0,92,0.06,,,0.01,Rainwise IP-100,2013-11-01 03:28:00,
2013-10-31 23:33:00,61.7,59.0,29.89,South,180,14.2,19.0,93,0.06,,,0.01,Rainwise IP-100,2013-11-01 03:33:00,
2013-10-31 23:38:00,61.6,60.0,29.89,South,180,10.7,16.0,94,0.00,,,0.01,Rainwise IP-100,2013-11-01 03:38:00,
2013-10-31 23:43:00,61.6,60.0,29.89,South,180,7.5,16.0,94,0.00,,,0.01,Rainwise IP-100,2013-11-01 03:43:00,
2013-10-31 23:48:00,61.7,60.0,29.88,South,180,8.4,14.0,94,0.00,,,0.01,Rainwise IP-100,2013-11-01 03:48:00,
2013-10-31 23:53:00,61.7,60.0,29.88,SSW,202,7.2,13.0,94,0.00,,,0.01,Rainwise IP-100,2013-11-01 03:53:00,
2013-10-31 23:59:00,61.7,60.0,29.88,SSW,202,10.3,12.0,94,0.00,,,0.01,Rainwise IP-100,2013-11-01 03:59:00,